• In Austria
  • List of Countries
  • For 7 days
  • Water Temperature
  • Satellite Maps
  • Weather Map
  • News
  • Weather Widgets
  • user-avatar
    Login

    Hourly Weather Prilep

    Today, 20 September, Thursday

    Time Temperature Precipitation Wind Pressure Humidity
    00:00 +14°C° 0 mm 1 mps 690 mmHg 73%
    01:00 +14°C° 0 mm 1 mps 690 mmHg 75%
    02:00 +14°C° 0 mm 1 mps 690 mmHg 76%
    03:00 +13°C° 0 mm 1 mps 690 mmHg 77%
    04:00 +13°C° 0 mm 1 mps 690 mmHg 78%
    05:00 +15°C° 0 mm 1 mps 690 mmHg 72%
    06:00 +16°C° 0 mm 1 mps 690 mmHg 66%
    07:00 +18°C° 0 mm 1 mps 691 mmHg 59%
    08:00 +21°C° 0 mm 1 mps 691 mmHg 52%
    09:00 +23°C° 0 mm 1 mps 691 mmHg 44%
    10:00 +25°C° 0 mm 2 mps 691 mmHg 36%
    11:00 +26°C° 0 mm 2 mps 691 mmHg 33%
    12:00 +27°C° 0 mm 2 mps 691 mmHg 29%
    13:00 +28°C° 0 mm 2 mps 691 mmHg 25%
    14:00 +28°C° 0 mm 2 mps 691 mmHg 25%
    15:00 +27°C° 0 mm 2 mps 690 mmHg 24%
    16:00 +27°C° 0 mm 2 mps 690 mmHg 24%
    17:00 +24°C° 0 mm 1 mps 690 mmHg 31%
    18:00 +21°C° 0 mm 1 mps 689 mmHg 37%
    19:00 +19°C° 0 mm 1 mps 689 mmHg 43%
    20:00 +18°C° 0 mm 1 mps 689 mmHg 46%
    21:00 +16°C° 0 mm 1 mps 689 mmHg 49%
    22:00 +15°C° 0 mm 1 mps 689 mmHg 51%
    23:00 +15°C° 0 mm 1 mps 689 mmHg 53%

    Tomorrow, 21 September, Friday

    Time Temperature Precipitation Wind Pressure Humidity
    00:00 +14°C° 0 mm 1 mps 689 mmHg 55%
    01:00 +14°C° 0 mm 1 mps 689 mmHg 57%
    02:00 +13°C° 0 mm 1 mps 689 mmHg 59%
    03:00 +13°C° 0 mm 1 mps 689 mmHg 60%
    04:00 +12°C° 0 mm 1 mps 688 mmHg 61%
    05:00 +14°C° 0 mm 1 mps 689 mmHg 56%
    06:00 +15°C° 0 mm 0 mps 689 mmHg 51%
    07:00 +16°C° 0 mm 0 mps 690 mmHg 47%
    08:00 +21°C° 0 mm 1 mps 690 mmHg 41%
    09:00 +23°C° 0 mm 1 mps 691 mmHg 36%
    10:00 +25°C° 0 mm 1 mps 691 mmHg 30%
    11:00 +26°C° 0 mm 1 mps 691 mmHg 28%
    12:00 +27°C° 0 mm 1 mps 691 mmHg 25%
    13:00 +28°C° 0 mm 2 mps 690 mmHg 23%
    14:00 +28°C° 0 mm 2 mps 690 mmHg 23%
    15:00 +28°C° 0 mm 2 mps 690 mmHg 23%
    16:00 +27°C° 0 mm 2 mps 690 mmHg 24%
    17:00 +24°C° 0 mm 2 mps 689 mmHg 30%
    18:00 +22°C° 0 mm 1 mps 689 mmHg 36%
    19:00 +19°C° 0 mm 1 mps 689 mmHg 43%
    20:00 +18°C° 0 mm 1 mps 689 mmHg 45%
    21:00 +16°C° 0 mm 1 mps 689 mmHg 48%
    22:00 +16°C° 0 mm 1 mps 689 mmHg 50%
    23:00 +15°C° 0 mm 1 mps 689 mmHg 52%

    Day after tomorrow, 22 September, Saturday

    Time Temperature Precipitation Wind Pressure Humidity
    00:00 +15°C° 0 mm 1 mps 689 mmHg 54%
    01:00 +14°C° 0 mm 1 mps 689 mmHg 56%
    02:00 +14°C° 0 mm 1 mps 689 mmHg 57%
    03:00 +14°C° 0 mm 1 mps 689 mmHg 58%
    04:00 +13°C° 0 mm 1 mps 689 mmHg 59%
    05:00 +15°C° 0 mm 1 mps 689 mmHg 55%
    06:00 +18°C° 0 mm 1 mps 689 mmHg 50%
    07:00 +19°C° 0 mm 1 mps 690 mmHg 46%
    08:00 +22°C° 0 mm 1 mps 690 mmHg 40%
    09:00 +24°C° 0 mm 1 mps 691 mmHg 34%
    10:00 +27°C° 0 mm 1 mps 691 mmHg 28%
    11:00 +28°C° 0 mm 1 mps 691 mmHg 27%
    12:00 +29°C° 0 mm 1 mps 691 mmHg 25%
    13:00 +30°C° 0 mm 1 mps 691 mmHg 23%
    14:00 +29°C° 0 mm 1 mps 691 mmHg 23%
    15:00 +29°C° 0 mm 2 mps 691 mmHg 24%
    16:00 +29°C° 0 mm 2 mps 690 mmHg 25%
    17:00 +26°C° 0 mm 1 mps 690 mmHg 30%
    18:00 +23°C° 0 mm 1 mps 690 mmHg 36%
    19:00 +20°C° 0 mm 1 mps 690 mmHg 42%
    20:00 +20°C° 0 mm 1 mps 691 mmHg 45%
    21:00 +19°C° 0 mm 1 mps 691 mmHg 48%
    22:00 +17°C° 0 mm 2 mps 691 mmHg 52%
    23:00 +17°C° 0 mm 2 mps 691 mmHg 58%

    23 September, Sunday

    Time Temperature Precipitation Wind Pressure Humidity
    00:00 +16°C° 0 mm 2 mps 691 mmHg 64%
    01:00 +15°C° 0 mm 2 mps 691 mmHg 71%
    02:00 +15°C° 0 mm 2 mps 691 mmHg 75%
    03:00 +14°C° 0 mm 2 mps 691 mmHg 79%
    04:00 +14°C° 0 mm 2 mps 691 mmHg 83%
    05:00 +15°C° 0 mm 2 mps 691 mmHg 75%
    06:00 +16°C° 0 mm 2 mps 692 mmHg 68%
    07:00 +17°C° 0 mm 2 mps 692 mmHg 61%
    08:00 +19°C° 0 mm 2 mps 692 mmHg 53%
    09:00 +23°C° 0 mm 2 mps 693 mmHg 45%
    10:00 +25°C° 0 mm 2 mps 693 mmHg 37%
    11:00 +27°C° 0 mm 2 mps 693 mmHg 34%
    12:00 +28°C° 0 mm 1 mps 693 mmHg 30%
    13:00 +29°C° 0 mm 1 mps 693 mmHg 27%
    14:00 +29°C° 0 mm 1 mps 693 mmHg 27%
    15:00 +29°C° 0 mm 1 mps 692 mmHg 27%
    16:00 +29°C° 0 mm 1 mps 692 mmHg 27%
    17:00 +26°C° 0 mm 1 mps 692 mmHg 33%
    18:00 +23°C° 0 mm 1 mps 691 mmHg 40%
    19:00 +20°C° 0 mm 1 mps 691 mmHg 46%
    20:00 +20°C° 0 mm 1 mps 691 mmHg 49%
    21:00 +19°C° 0 mm 1 mps 691 mmHg 52%
    22:00 +19°C° 0 mm 1 mps 691 mmHg 54%
    23:00 +18°C° 0 mm 1 mps 691 mmHg 56%

    24 September, Monday

    Time Temperature Precipitation Wind Pressure Humidity
    00:00 +18°C° 0 mm 1 mps 690 mmHg 58%
    01:00 +16°C° 0 mm 1 mps 690 mmHg 60%
    02:00 +16°C° 0 mm 1 mps 689 mmHg 62%
    03:00 +15°C° 0 mm 1 mps 689 mmHg 63%
    04:00 +15°C° 0 mm 2 mps 689 mmHg 64%
    05:00 +16°C° 0 mm 1 mps 689 mmHg 59%
    06:00 +19°C° 0 mm 1 mps 689 mmHg 54%
    07:00 +20°C° 0 mm 1 mps 689 mmHg 49%
    08:00 +23°C° 0 mm 1 mps 690 mmHg 42%
    09:00 +25°C° 0 mm 2 mps 690 mmHg 35%
    10:00 +28°C° 0 mm 2 mps 690 mmHg 28%
    11:00 +29°C° 0 mm 2 mps 690 mmHg 25%
    12:00 +30°C° 0 mm 2 mps 690 mmHg 23%
    13:00 +31°C° 0 mm 3 mps 689 mmHg 21%
    14:00 +30°C° 0 mm 3 mps 689 mmHg 24%
    15:00 +29°C° 0 mm 4 mps 689 mmHg 27%
    16:00 +28°C° 0 mm 4 mps 689 mmHg 30%
    17:00 +23°C° 0 mm 4 mps 689 mmHg 38%
    18:00 +19°C° 0 mm 4 mps 689 mmHg 46%
    19:00 +15°C° 0 mm 4 mps 689 mmHg 54%
    20:00 +13°C° 0 mm 4 mps 689 mmHg 56%
    21:00 +12°C° 0 mm 4 mps 690 mmHg 59%
    22:00 +10°C° 0 mm 3 mps 690 mmHg 61%
    23:00 +10°C° 0 mm 3 mps 690 mmHg 62%

    25 September, Tuesday

    Time Temperature Precipitation Wind Pressure Humidity
    00:00 +9°C° 0 mm 3 mps 690 mmHg 62%
    01:00 +9°C° 0 mm 3 mps 690 mmHg 63%
    02:00 +8°C° 0 mm 3 mps 690 mmHg 62%
    03:00 +8°C° 0 mm 3 mps 690 mmHg 60%
    04:00 +8°C° 0 mm 3 mps 690 mmHg 59%
    05:00 +8°C° 0 mm 3 mps 690 mmHg 55%
    06:00 +9°C° 0 mm 3 mps 690 mmHg 52%
    07:00 +10°C° 0 mm 3 mps 691 mmHg 48%
    08:00 +12°C° 0 mm 4 mps 691 mmHg 44%
    09:00 +13°C° 0 mm 4 mps 691 mmHg 41%
    10:00 +15°C° 0 mm 4 mps 692 mmHg 37%
    11:00 +17°C° 0 mm 4 mps 692 mmHg 36%
    12:00 +17°C° 0 mm 4 mps 692 mmHg 34%
    13:00 +18°C° 0 mm 4 mps 691 mmHg 33%
    14:00 +15°C° 0 mm 5 mps 691 mmHg 36%
    15:00 +14°C° 0 mm 5 mps 691 mmHg 39%
    16:00 +13°C° 0 mm 5 mps 691 mmHg 43%
    17:00 +11°C° 0.5 mm 4 mps 691 mmHg 52%
    18:00 +8°C° 0.5 mm 4 mps 691 mmHg 62%
    19:00 +6°C° 0.5 mm 4 mps 691 mmHg 72%
    20:00 +5°C° 0.5 mm 3 mps 691 mmHg 75%
    21:00 +5°C° 0.5 mm 3 mps 691 mmHg 77%
    22:00 +4°C° 0.5 mm 3 mps 691 mmHg 80%
    23:00 +4°C° 0 mm 3 mps 691 mmHg 79%
    Show more